Location: Newark
(45.5000°N, 11.4167°E)
Time: 16:07:39
(UTC+00:00)

Transit 2A Rocket - Pass Details

Date: 28 August 2019
Orbit: 592 x 911 km, 66.7° (Epoch: 18 September)

Event Time Altitude Azimuth Distance (km) Brightness Sun altitude
Rises 02:29:11 0° 321° (NW) 2,982 8.1 -19.7°
Reaches altitude 10° 02:31:39 10° 313° (NW) 2,025 7.1 -19.4°
Enters shadow 02:34:42 32° 279° (W) 1,071 5.4 -18.9°
Maximum altitude 02:35:49 37° 246° (WSW) 952 - -18.8°
Drops below altitude 10° 02:39:47 10° 179° (S) 1,925 - -18.2°
Sets 02:42:05 0° 171° (S) 2,814 - -17.9°
